#timestamp,LO_Frequency,Hit,StdDev 
1563235215.8,286047000.0,N
1563235235.6,286047002.6,N
1563235255.5,286047002.4,N
1563235275.3,286046999.9,N
1563235295.1,286047000.2,N
1563235315.9,286047000.6,N
1563235335.7,286047002.6,N
1563235355.5,286047000.5,N
1563235375.4,286047001.2,N
1563235395.2,286046998.6,N
1563235415.1,286047000.8,N
1563235416.0,286047000.8,N
1563235435.8,286046999.2,N
1563235455.6,286046997.0,N
1563235475.5,286046998.2,N
1563235495.3,286047000.1,N
1563235515.2,286046998.9,N
1563235535.9,286047001.1,N
1563235555.7,286047002.5,N
1563235575.6,286047002.6,N
1563235595.4,286047000.1,N
1563235615.3,286046998.5,N
1563235635.1,286046998.5,N
1563235636.0,286046998.5,N
1563235655.8,286046999.8,N
1563235675.7,286047001.5,N
1563235695.5,286047002.2,N
1563235715.4,286047002.7,N
1563235735.2,286047004.3,N
1563235755.0,286047002.6,N
1563235755.9,286047002.6,N
1563235775.8,286047002.7,N
1563235795.6,286046999.9,N
1563235815.4,286047002.8,N
1563235835.3,286047000.1,N
1563235855.1,286047002.1,N
1563235875.9,286047001.7,N
1563235895.7,286047001.9,N
1563235915.5,286047000.6,N
1563235935.4,286046999.9,N
1563235955.2,286047002.3,N
1563235975.0,286046999.8,N
1563235976.0,286046999.8,N
1563235995.8,286047000.3,N
1563236015.6,286046999.7,N
1563236035.5,286047001.3,N
1563236055.3,286047001.9,N
1563236075.1,286047001.9,N
1563236095.9,286047001.8,N
1563236115.7,286047001.8,N
1563236135.6,286047005.6,Y
1563236155.4,286047001.5,P
1563236175.2,286047001.7,P
1563236195.1,286047000.2,N
1563236196.0,286047000.2,N
1563236215.8,286047002.3,Y
1563236235.7,286047000.3,P
1563236255.5,286047002.4,P
1563236275.3,286046999.9,N
1563236295.2,286047004.3,Y
1563236315.0,286047001.3,P
1563236315.9,286047001.3,P
1563236335.8,286047003.2,P
1563236355.6,286047005.7,Y
1563236375.4,286047001.4,P
1563236395.3,286047001.9,P
1563236415.1,286047004.4,P
1563236435.2,286047002.0,N
1563236455.0,286047001.7,N
1563236455.9,286047001.7,N
1563236475.8,286047001.7,N
1563236495.6,286047004.2,Y
1563236515.4,286047001.6,P
1563236535.3,286046999.7,N
1563236555.1,286047000.3,N
1563236575.8,286047002.7,N
1563236595.7,286046999.7,N
1563236615.5,286047000.6,N
1563236635.4,286047002.1,N
1563236655.3,286047002.8,N
1563236675.1,286047001.6,N
1563236676.0,286047001.6,N
1563236695.8,286047002.4,N
1563236715.7,286047000.9,N
1563236735.5,286046998.4,N
1563236755.3,286046998.5,N
1563236775.2,286046998.5,N
1563236795.0,286047001.2,N
1563236795.9,286047001.2,N
1563236815.8,286046999.2,N
1563236835.6,286046999.6,N
1563236855.4,286046996.7,N
1563236875.8,286046997.0,N
1563236895.7,286046997.0,N
1563236915.5,286046997.4,N
1563236935.3,286046997.3,N
1563236955.2,286046999.1,N
1563236975.0,286046996.6,N
1563236975.9,286046996.6,N
1563236995.8,286046997.6,N
1563237015.6,286046995.7,N
1563237035.4,286046995.5,N
1563237055.3,286046997.8,N
1563237075.1,286046997.2,N
1563237095.8,286046994.9,N
1563237115.7,286046997.5,N
1563237135.5,286046996.7,N
1563237155.4,286046997.1,N
1563237175.2,286046995.0,N
1563237195.0,286046995.4,N
1563237195.9,286046995.4,N
1563237215.8,286046996.2,N
1563237235.6,286046996.2,N
1563237255.5,286046993.4,Y
1563237275.3,286046996.0,P
1563237295.1,286046993.5,P
1563237315.9,286046992.3,P
1563237335.7,286046991.9,Y
1563237355.6,286046999.1,P
1563237375.4,286046998.4,N
1563237395.2,286046999.1,N
1563237415.1,286046999.0,N
1563237416.0,286046999.0,N
1563237435.8,286046997.4,N
1563237455.6,286046997.6,N
1563237475.5,286046996.7,N
1563237495.3,286046997.3,N
1563237515.2,286046996.7,N
1563237535.9,286046998.8,N
1563237555.7,286046998.7,N
1563237575.6,286046996.9,N
1563237595.4,286046997.4,N
1563237615.2,286046997.1,N
1563237635.1,286046996.7,N
1563237636.0,286046996.7,N
1563237655.8,286046997.9,N
1563237675.0,286046997.7,N
1563237675.9,286046997.7,N
1563237695.8,286046998.0,N
1563237715.6,286046999.4,N
1563237735.4,286046997.1,N
1563237755.3,286046996.8,Y
1563237775.1,286047000.2,P
1563237795.8,286047002.8,N
1563237815.7,286047002.1,N
1563237835.5,286047002.6,N
1563237855.4,286047002.5,N
1563237875.2,286047000.3,N
1563237895.0,286047000.8,N
1563237895.9,286047000.8,N
1563237915.8,286047000.1,N
1563237935.6,286047000.8,N
1563237955.5,286047000.9,N
1563237975.3,286047004.4,Y
1563237995.1,286046999.9,P
1563238015.9,286047002.0,P
1563238035.7,286047000.9,N
1563238055.8,286047000.5,N
1563238075.7,286047002.1,Y
1563238095.5,286047002.3,P
1563238115.4,286047002.7,P
1563238135.2,286046999.9,N
1563238155.0,286047001.5,N
1563238155.9,286047001.5,N
1563238175.8,286047000.4,N
1563238195.6,286047000.0,N
1563238215.5,286047002.0,N
1563238235.3,286047004.0,Y
1563238255.1,286047000.2,P
1563238275.9,286047000.6,N
1563238295.7,286047001.0,N
1563238315.6,286047000.1,N
1563238335.4,286047000.1,N
1563238355.2,286046999.9,N
1563238375.1,286047002.7,Y
1563238376.0,286047002.7,P
1563238395.8,286047001.6,N
1563238415.7,286047001.5,N
1563238435.5,286047002.8,Y
1563238455.3,286047000.4,P
1563238475.2,286046999.3,N
1563238495.0,286047001.0,N
1563238495.9,286047001.0,N
1563238545.8,286046999.1,E
1563238555.7,286046997.0,N
1563238575.5,286046998.9,P
1563238595.4,286047000.0,N
1563238615.2,286046998.8,N
1563238635.0,286046998.6,N
1563238635.9,286046998.6,N
1563238655.8,286047000.9,N
1563238675.6,286047002.2,N
1563238695.5,286047002.0,N
1563238715.3,286047001.8,N
1563238735.1,286047002.0,N
1563238755.9,286047002.4,N
1563238775.7,286047002.5,N
1563238795.5,286047001.9,N
